Temperature
15 15 15 15 15 15 15 15 15 14 14 14 14 14 14 14 14 13 13 13 13 13 13 13 13 13 12 12 12 12 12 12 12 12 12 12 12 12 12 12 12 11 11
15 15 14 14 14 14 14 14 14 14 14 14 14 14 13 13 13 13 13 13 13 13 13 13 12 12 12 12 12 12 12 11 11 11 11 11 11 11 11 11 11 11 11
14 14 14 14 14 14 14 14 14 14 14 14 14 13 13 13 13 13 13 13 13 13 13 12 12 12 12 12 11 11 11 11 11 11 11 11 11 11 11 11 10 10 10
14 14 14 14 14 14 14 14 14 13 13 13 13 13 13 13 13 13 13 13 13 12 12 12 12 12 11 11 11 11 11 11 11 10 10 10 10 10 10 10 10 10 9
14 14 14 14 14 14 13 13 13 13 13 13 13 13 13 13 13 13 13 13 12 12 12 12 11 11 11 11 11 11 11 11 10 10 10 10 10 9 9 9 9 9 9
14 14 14 14 14 14 13 13 13 13 13 13 13 13 13 13 13 13 13 13 12 12 12 11 11 11 11 11 11 11 11 10 10 10 10 9 9 9 9 9 9 9 8
14 14 14 14 14 14 13 13 13 13 13 13 12 12 13 13 13 13 13 12 12 12 11 11 11 10 10 10 10 10 10 10 10 10 9 9 9 9 9 9 9 8 8
14 14 14 14 14 14 14 13 13 13 13 12 12 11 11 12 12 12 12 12 12 11 11 10 10 10 10 9 9 10 10 10 10 10 9 9 9 9 8 8 8 8 7
14 14 14 14 14 14 13 13 13 12 12 12 11 11 11 11 12 12 11 11 11 10 10 10 9 9 9 9 9 9 9 9 9 9 9 9 9 9 8 8 8 7 7
14 14 14 14 14 13 13 13 12 12 11 11 11 11 11 10 10 10 10 10 10 10 10 9 9 8 8 8 8 8 8 8 8 9 9 9 9 8 8 8 8 7 7
14 14 14 14 13 13 13 12 12 11 11 11 10 10 10 10 10 10 10 10 10 9 9 9 8 8 7 7 7 7 7 7 8 8 8 8 8 8 8 8 8 7 7
13 13 13 13 13 12 12 12 11 11 10 10 10 10 9 9 9 9 9 9 9 9 8 8 8 7 7 7 7 7 7 7 7 7 7 7 8 8 8 7 7 7 7
13 13 12 12 12 11 11 11 10 10 10 9 9 9 9 9 8 8 8 8 8 8 8 7 7 7 6 6 6 6 6 6 6 6 6 7 7 7 7 7 7 6 6
12 11 11 11 11 10 10 10 9 9 9 9 8 8 8 8 8 8 8 7 7 7 7 6 6 6 6 6 6 6 5 6 6 6 6 6 6 6 6 6 6 6 6
11 11 10 10 9 9 9 9 8 8 8 8 7 7 7 7 7 7 7 7 6 6 6 6 5 5 5 5 5 5 5 5 5 5 5 5 5 5 5 5 5 5 5
10 10 9 9 8 8 8 8 7 7 7 7 7 7 7 6 6 6 6 6 6 5 5 5 5 4 4 4 4 4 4 4 4 4 4 4 4 4 4 4 4 4 4
9 8 8 7 7 7 7 7 6 6 6 6 6 6 6 6 6 6 6 6 5 5 4 4 4 4 4 4 4 4 3 3 3 3 3 3 3 3 3 3 3 3 3
8 7 7 6 6 6 6 6 6 5 5 5 5 5 5 5 5 5 5 5 5 5 4 3 3 3 3 3 3 3 3 3 2 2 2 2 2 2 3 3 3 3 2
6 6 5 5 5 5 5 5 5 5 5 5 5 5 5 5 5 5 5 4 4 4 4 3 3 3 3 2 2 2 2 2 2 2 2 2 2 2 2 2 2 2 2
5 4 4 4 4 5 4 4 4 4 4 4 4 4 4 4 4 4 4 4 3 3 3 3 2 2 2 1 1 2 1 1 1 1 1 1 1 1 1 1 1 1 1
4 3 3 3 4 4 4 4 4 4 4 4 4 3 3 3 3 3 3 3 2 2 2 1 1 1 0 0 0 1 0 1 0 0 0 0 1 1 1 1 1 1 1
2 2 2 2 3 3 3 3 3 3 3 3 3 3 3 2 2 2 2 2 2 1 1 1 0 -0 -1 -1 -1 -1 -0 -0 -1 -1 -0 -0 -0 -0 -0 -0 -0 -0 -0
2 1 1 2 2 2 2 3 2 2 2 2 2 2 2 2 2 2 2 1 1 1 0 -0 -0 -1 -1 -1 -1 -1 -1 -1 -1 -2 -1 -1 -1 -1 -1 -1 -1 -1 -1
1 1 1 1 2 2 2 2 2 2 2 2 2 2 1 1 1 1 1 1 0 -0 -0 -1 -1 -1 -1 -2 -2 -2 -2 -2 -2 -2 -2 -2 -2 -2 -2 -2 -2 -2 -2
0 1 1 1 1 1 1 1 1 1 1 1 1 1 1 1 1 0 0 0 -0 -0 -1 -1 -1 -2 -2 -2 -2 -2 -2 -3 -3 -3 -3 -3 -3 -2 -2 -2 -2 -2 -3
0 0 0 0 1 1 1 1 1 1 1 1 1 1 1 0 0 -0 -0 -0 -1 -1 -1 -1 -2 -2 -2 -2 -3 -3 -3 -3 -4 -4 -4 -4 -4 -3 -3 -3 -3 -3 -3
Wind_Speed
3 3 3 4 5 6 6 5 6 5 3 3 4 5 5 7 7 7 6 10 10 10 10 11 11 10 9 8 7 6 5 4 3 2 1 0 1 2 3 4 5 6 6
5 2 2 3 3 3 3 4 6 4 2 3 3 5 7 8 9 10 9 11 13 13 13 13 13 13 12 11 10 9 9 8 7 5 4 3 2 1 1 2 3 4 5
6 4 2 2 4 5 5 5 5 3 2 2 3 6 7 7 7 9 10 10 11 15 16 15 14 14 13 13 13 12 11 11 11 9 8 7 5 4 3 2 2 2 3
7 5 3 3 5 5 4 2 2 3 3 3 4 4 4 5 7 9 10 10 10 10 12 14 14 14 13 14 14 14 13 12 13 13 12 10 9 8 7 6 5 4 3
7 5 4 4 5 4 3 2 3 3 3 4 4 4 4 4 5 8 8 10 9 6 4 5 9 12 13 12 13 14 14 13 13 15 15 14 13 12 10 9 8 7 6
5 4 3 4 4 2 2 3 4 3 3 4 4 5 5 6 5 6 6 7 5 3 1 1 2 5 8 10 10 12 13 13 13 14 16 16 16 15 14 13 12 10 9
3 3 2 3 3 3 4 4 3 4 4 3 3 4 6 8 9 7 4 1 1 2 2 2 2 3 4 5 6 8 10 11 12 12 13 16 18 18 17 16 15 14 12
1 0 1 1 2 3 4 4 3 3 3 3 3 3 4 4 4 3 2 2 1 2 3 4 4 4 5 5 7 8 9 10 11 12 11 12 15 18 19 19 18 16 15
2 2 2 2 2 2 3 4 3 4 4 3 4 4 3 3 3 3 0 1 1 2 2 4 5 6 6 7 9 11 12 11 11 12 12 12 12 14 18 19 19 19 17
3 4 4 3 3 2 3 3 3 3 3 4 3 4 5 3 2 3 2 1 1 2 2 3 5 8 10 11 11 13 13 12 11 12 12 12 11 12 13 16 18 18 18
3 4 4 4 3 2 3 3 4 3 3 4 3 3 4 3 4 4 3 3 1 1 2 3 6 9 12 12 12 13 12 12 12 11 11 12 11 10 10 10 13 15 17
2 3 4 4 3 3 3 3 4 4 3 3 3 3 3 2 3 3 4 3 2 1 2 4 5 8 11 11 11 12 12 12 12 11 11 11 10 9 7 9 10 11 15
2 3 3 3 3 3 3 3 3 3 2 2 2 2 1 1 1 1 2 2 1 1 1 4 5 9 10 11 12 12 11 12 12 12 11 10 10 7 6 4 5 7 10
2 3 3 2 3 3 3 3 2 2 2 2 2 2 1 2 2 1 0 1 1 2 1 3 4 8 9 10 11 11 11 13 13 13 12 11 10 8 6 3 3 6 7
2 2 2 2 2 2 2 2 1 2 2 3 3 3 3 3 3 3 2 1 1 2 2 2 3 4 8 9 11 10 10 11 12 13 12 12 11 10 8 8 8 7 8
2 1 1 2 2 2 2 2 2 2 3 4 3 4 3 3 3 3 3 2 1 1 1 2 3 3 6 7 9 9 9 11 13 13 13 12 11 10 10 9 8 9 9
2 2 2 2 3 3 3 2 2 3 4 4 4 4 5 4 3 3 3 3 3 2 0 1 2 3 4 4 6 7 9 9 10 13 13 13 12 11 11 11 10 9 8
3 3 2 2 3 3 3 3 3 4 4 5 5 5 4 4 5 4 4 4 3 3 2 1 2 3 3 3 3 4 5 6 8 9 11 11 11 10 9 8 7 6 5
3 2 2 3 3 3 3 4 5 5 6 6 5 5 5 5 5 4 4 4 3 3 2 2 2 2 1 1 2 2 2 3 5 6 7 8 8 7 7 6 5 4 3
2 3 3 4 4 3 3 4 5 6 6 6 6 6 6 6 5 4 4 3 3 2 2 2 1 1 0 0 1 2 2 3 3 5 6 6 5 5 5 5 4 4 3
3 3 4 4 4 3 3 3 4 5 6 6 6 6 6 7 7 6 4 4 4 3 2 1 1 1 1 2 2 2 3 3 2 3 4 4 4 4 4 3 3 2 3
3 3 3 3 4 4 4 4 5 5 5 6 5 4 5 5 6 7 8 7 6 4 3 2 1 1 2 2 3 3 3 3 3 3 4 4 3 2 3 1 1 2 4
3 3 3 4 6 5 6 6 7 6 6 5 4 3 3 3 4 3 4 5 5 6 5 2 2 2 2 2 2 3 2 1 2 3 2 3 3 3 3 2 3 4 6
4 3 3 5 6 6 6 7 8 6 5 4 3 2 2 2 3 3 3 3 2 2 3 4 4 3 3 3 3 1 1 2 3 2 1 1 3 3 4 7 4 3 4
4 4 3 4 5 5 6 6 5 4 3 3 2 2 2 3 3 3 2 1 1 1 2 2 1 1 2 3 3 2 3 3 2 2 2 1 3 4 4 3 3 3 4
5 5 4 3 4 4 6 6 5 2 3 3 3 2 2 2 1 1 1 2 1 1 1 0 2 2 2 2 1 2 2 1 0 2 2 2 3 4 4 4 4 6 7
Wind_Direction
176 197 210 175 206 202 181 206 250 261 247 259 259 260 269 272 271 271 230 210 218 225 235 246 250 248 243 240 241 239 226 222 230 229 217 163 65 60 59 61 60 58 59
182 192 229 180 232 230 225 227 250 255 260 268 278 283 271 263 260 260 255 231 227 232 235 242 249 253 253 250 247 241 231 224 225 226 223 217 206 189 123 93 79 73 70
187 192 237 211 225 230 235 240 273 293 294 290 281 275 272 270 272 274 272 254 235 234 238 242 248 254 258 259 256 251 240 228 223 223 223 220 214 211 208 179 152 122 100
203 200 214 235 243 240 236 230 264 279 268 265 269 278 284 285 276 276 277 274 257 240 236 241 248 255 261 264 264 261 253 238 227 223 221 219 215 212 212 205 196 182 158
207 204 214 236 249 242 233 233 238 245 266 276 277 281 285 284 278 278 273 272 268 250 229 241 251 255 260 268 272 271 265 255 238 228 223 220 217 214 213 210 207 202 192
217 221 227 244 257 249 244 242 250 248 246 258 278 280 272 265 260 254 254 263 265 246 222 284 280 271 269 272 279 283 281 274 262 243 231 224 219 216 215 214 211 208 204
214 219 238 254 261 256 254 255 254 259 257 249 277 285 271 255 248 242 225 216 80 93 98 67 35 15 352 326 308 308 307 299 288 273 251 236 227 221 217 215 213 210 208
50 287 276 275 277 274 275 272 263 256 251 223 219 274 300 305 285 239 167 131 97 91 98 88 66 41 23 24 27 17 358 337 320 305 287 263 242 231 224 219 215 212 209
41 2 327 314 303 282 273 276 274 258 258 251 216 221 253 268 332 335 357 125 125 89 81 84 70 52 47 50 44 30 16 0 340 324 308 289 267 247 234 226 219 214 209
60 28 11 352 330 311 292 285 285 271 257 261 260 235 231 234 254 296 314 330 71 91 77 73 66 61 57 60 49 29 15 1 346 333 322 309 289 267 251 234 225 219 208
86 50 22 2 345 328 319 312 304 293 268 255 250 255 255 251 230 229 265 292 318 25 67 74 72 66 58 58 44 24 15 4 353 341 330 322 315 297 267 243 228 218 206
99 71 32 7 356 349 338 328 315 302 291 282 272 256 242 238 230 221 235 248 255 292 62 69 73 70 62 58 39 21 18 8 359 349 340 332 332 321 290 252 232 215 204
89 72 43 11 358 346 338 333 325 319 318 304 293 288 287 272 284 243 238 251 250 245 99 74 64 68 61 55 32 22 22 16 9 3 356 353 349 343 331 281 224 199 192
72 62 29 358 350 350 350 345 336 345 7 15 18 21 44 33 30 31 243 206 251 254 191 111 64 56 54 55 32 29 25 22 18 18 19 19 17 18 16 32 123 153 161
67 51 13 353 355 3 4 359 9 22 45 51 47 52 60 47 43 32 27 55 189 225 235 109 90 48 45 53 34 27 22 21 25 25 28 28 30 36 50 67 80 107 122
61 29 17 12 15 12 17 42 41 46 78 69 59 72 66 58 54 38 29 29 36 193 218 85 83 61 47 44 33 26 21 28 31 30 33 35 39 48 59 73 80 88 98
61 50 52 45 41 23 22 72 75 70 89 87 75 76 71 64 68 51 40 41 37 32 211 95 87 62 55 40 23 23 28 30 30 35 37 38 43 50 59 64 69 74 80
74 62 59 74 64 40 32 71 85 75 85 92 87 85 80 75 68 52 53 52 43 33 41 91 77 54 51 33 18 21 24 27 29 31 35 39 43 47 50 54 58 63 64
95 85 78 88 80 60 54 67 87 83 78 74 72 75 71 79 73 60 57 49 36 40 42 70 73 60 52 18 11 8 15 20 25 24 29 31 32 35 36 37 39 37 31
122 115 100 93 90 78 70 74 92 96 91 81 72 68 63 67 69 64 63 42 32 45 54 73 89 88 76 330 31 13 1 8 5 13 16 9 7 10 11 14 20 18 5
108 104 108 111 111 100 87 94 107 113 109 98 84 78 74 75 72 67 66 43 34 42 49 51 53 22 21 47 33 14 4 343 356 22 1 342 339 335 330 338 350 353 336
121 115 121 125 112 101 107 110 113 105 106 105 100 91 89 71 76 73 68 61 54 56 48 32 357 38 51 52 37 25 18 14 342 357 8 324 325 321 308 335 353 328 314
147 144 140 124 110 115 124 117 107 104 103 107 109 102 101 92 70 63 66 66 61 58 53 52 54 48 65 54 51 22 20 2 285 289 359 316 327 327 310 306 301 300 302
156 150 139 123 124 132 130 122 115 107 112 116 113 106 104 108 83 63 60 55 46 66 59 61 71 56 65 53 46 16 329 328 303 299 68 310 319 323 321 315 293 274 292
147 137 124 120 127 140 145 143 131 130 141 152 148 108 87 108 101 62 48 357 316 197 135 104 55 9 1 359 1 30 16 24 340 331 21 19 325 327 319 315 287 261 283
150 141 138 139 146 161 174 175 170 169 169 177 180 175 149 133 119 44 20 350 355 32 61 343 291 275 256 261 346 99 130 129 302 312 353 32 356 358 332 313 327 324 310
Height
1568 1569 1570 1571 1572 1572 1573 1573 1574 1574 1575 1575 1574 1574 1573 1573 1572 1572 1571 1570 1569 1568 1567 1566 1565 1564 1563 1562 1562 1561 1560 1559 1558 1557 1557 1556 1555 1555 1555 1555 1554 1554 1554
1567 1568 1569 1570 1571 1571 1572 1572 1572 1573 1573 1573 1572 1572 1571 1571 1570 1570 1569 1568 1567 1566 1565 1564 1563 1562 1561 1560 1560 1559 1558 1558 1557 1556 1555 1555 1554 1554 1553 1553 1553 1553 1553
1565 1566 1567 1568 1569 1570 1570 1570 1571 1571 1571 1570 1570 1570 1569 1568 1568 1567 1566 1565 1564 1563 1562 1561 1561 1560 1559 1558 1557 1556 1556 1555 1555 1555 1554 1553 1553 1552 1552 1552 1552 1552 1552
1564 1565 1566 1567 1567 1568 1568 1568 1568 1568 1568 1568 1567 1567 1566 1565 1564 1563 1562 1562 1561 1560 1558 1558 1557 1556 1556 1555 1554 1554 1553 1552 1552 1552 1552 1551 1551 1551 1551 1550 1550 1550 1550
1562 1563 1564 1565 1565 1566 1566 1566 1566 1565 1565 1564 1564 1563 1562 1561 1560 1559 1558 1558 1557 1556 1555 1554 1553 1552 1552 1551 1550 1550 1550 1549 1549 1548 1548 1548 1549 1549 1549 1549 1548 1549 1549
1560 1561 1561 1562 1563 1563 1563 1563 1563 1562 1562 1561 1560 1559 1558 1557 1556 1555 1554 1553 1553 1552 1552 1551 1550 1549 1548 1547 1546 1546 1545 1545 1545 1545 1544 1544 1545 1545 1546 1546 1546 1546 1547
1557 1558 1558 1559 1559 1559 1559 1559 1559 1558 1558 1557 1556 1554 1552 1552 1551 1550 1550 1550 1550 1549 1548 1547 1546 1545 1544 1543 1543 1542 1541 1541 1541 1541 1541 1540 1540 1541 1542 1542 1543 1544 1544
1554 1554 1555 1555 1555 1555 1555 1555 1555 1554 1553 1553 1552 1550 1548 1548 1546 1547 1547 1547 1547 1546 1545 1544 1543 1542 1541 1540 1539 1538 1537 1537 1537 1537 1537 1537 1536 1537 1537 1538 1539 1540 1541
1550 1551 1551 1551 1551 1550 1550 1550 1550 1549 1548 1548 1548 1548 1547 1544 1544 1544 1544 1544 1544 1543 1542 1541 1540 1539 1537 1536 1535 1534 1533 1532 1532 1532 1532 1532 1532 1532 1533 1533 1534 1535 1536
1546 1547 1547 1546 1546 1545 1545 1545 1544 1544 1543 1543 1543 1543 1543 1542 1542 1540 1541 1541 1541 1540 1539 1538 1536 1535 1534 1532 1531 1530 1529 1528 1528 1527 1527 1527 1527 1527 1528 1528 1529 1531 1532
1542 1542 1542 1541 1541 1540 1539 1539 1538 1538 1538 1538 1538 1538 1537 1537 1537 1537 1536 1537 1537 1537 1535 1534 1533 1531 1530 1529 1527 1526 1525 1524 1523 1523 1523 1522 1522 1522 1523 1523 1524 1526 1527
1537 1537 1537 1536 1535 1535 1534 1533 1533 1532 1532 1532 1532 1532 1532 1532 1532 1532 1532 1532 1533 1533 1532 1531 1529 1528 1527 1525 1524 1522 1521 1520 1519 1518 1518 1517 1517 1517 1518 1518 1519 1521 1523
1532 1531 1531 1531 1530 1529 1529 1528 1528 1527 1527 1527 1527 1527 1527 1527 1528 1528 1528 1528 1528 1528 1528 1527 1525 1524 1523 1522 1520 1519 1517 1516 1515 1514 1513 1512 1512 1512 1513 1513 1515 1516 1518
1527 1527 1526 1526 1525 1525 1524 1523 1523 1522 1522 1522 1522 1522 1522 1522 1523 1523 1524 1524 1523 1524 1524 1523 1522 1521 1520 1519 1517 1515 1514 1513 1512 1510 1510 1509 1508 1508 1508 1509 1510 1512 1514
1522 1522 1521 1521 1520 1520 1519 1519 1518 1518 1517 1517 1517 1517 1517 1517 1518 1518 1519 1519 1520 1520 1520 1519 1518 1518 1517 1516 1514 1513 1511 1510 1509 1508 1507 1506 1506 1506 1506 1507 1508 1510 1511
1517 1517 1516 1516 1515 1515 1514 1514 1514 1513 1513 1513 1513 1513 1513 1513 1513 1514 1514 1514 1515 1516 1516 1516 1515 1514 1513 1512 1511 1510 1509 1508 1507 1506 1506 1505 1505 1505 1505 1506 1507 1508 1509
1512 1511 1511 1511 1511 1510 1510 1510 1510 1509 1509 1509 1509 1508 1508 1509 1509 1509 1510 1510 1510 1511 1512 1512 1512 1511 1510 1509 1508 1507 1507 1506 1505 1505 1504 1504 1504 1504 1504 1505 1506 1506 1507
1507 1506 1506 1506 1506 1506 1506 1506 1506 1505 1505 1505 1505 1505 1505 1505 1505 1506 1506 1506 1507 1507 1508 1508 1508 1507 1507 1506 1505 1505 1504 1504 1503 1503 1503 1503 1503 1503 1503 1504 1504 1505 1506
1502 1502 1502 1502 1502 1502 1502 1502 1502 1502 1502 1502 1502 1502 1502 1502 1502 1503 1503 1503 1503 1503 1504 1504 1504 1504 1503 1503 1503 1502 1502 1502 1501 1501 1501 1501 1501 1501 1501 1501 1502 1502 1503
1498 1498 1498 1498 1498 1498 1499 1499 1499 1499 1499 1499 1499 1499 1499 1499 1499 1500 1500 1500 1500 1500 1500 1500 1500 1500 1500 1499 1499 1499 1499 1499 1498 1498 1498 1498 1498 1498 1498 1498 1498 1498 1499
1494 1494 1494 1494 1495 1495 1495 1496 1496 1496 1496 1496 1496 1496 1496 1497 1497 1497 1497 1497 1497 1497 1497 1497 1497 1497 1497 1496 1496 1496 1496 1495 1495 1495 1495 1495 1495 1494 1494 1494 1494 1494 1494
1490 1491 1491 1491 1491 1492 1492 1493 1493 1494 1494 1494 1494 1494 1494 1494 1494 1494 1494 1494 1495 1495 1494 1494 1494 1494 1493 1493 1493 1493 1492 1492 1492 1492 1492 1492 1491 1491 1490 1490 1490 1490 1489
1487 1488 1488 1488 1489 1489 1490 1490 1491 1491 1492 1492 1492 1492 1492 1492 1492 1492 1492 1492 1492 1492 1492 1492 1491 1491 1491 1491 1491 1490 1490 1489 1489 1489 1489 1488 1488 1487 1487 1486 1486 1486 1485
1484 1485 1485 1486 1487 1487 1488 1488 1489 1489 1489 1490 1490 1490 1490 1490 1490 1490 1489 1489 1489 1490 1489 1489 1489 1489 1489 1489 1488 1488 1487 1487 1487 1486 1486 1486 1485 1484 1484 1483 1483 1482 1482
1481 1482 1483 1484 1485 1485 1486 1486 1487 1487 1488 1488 1488 1488 1488 1488 1488 1487 1487 1487 1487 1487 1487 1487 1487 1487 1486 1486 1486 1485 1485 1485 1484 1484 1484 1483 1482 1482 1481 1480 1480 1479 1479
1478 1480 1481 1482 1483 1483 1484 1485 1485 1486 1486 1486 1486 1486 1486 1486 1486 1485 1485 1485 1485 1485 1485 1485 1485 1484 1484 1484 1483 1483 1483 1483 1482 1482 1481 1481 1480 1479 1478 1478 1477 1477 1476